Weather History for Galena, AK

Change the Weather History Date:

Wednesday, December 25, 2013

  Actual Average Record
Temperature  
Mean Temperature -32 °F -  
Max Temperature -27 °F 2 °F 30 °F (1971)
Min Temperature -38 °F -13 °F -54 °F (1957)
Degree Days  
Heating Degree Days 98    
Moisture  
Dew Point -35 °F    
Average Humidity 72    
Maximum Humidity 73    
Minimum Humidity 69    
Precipitation  
Precipitation 0.00 in - - ()
Sea Level Pressure  
Sea Level Pressure 30.18 in    
Wind  
Wind Speed 2 mph (West)    
Max Wind Speed 6 mph    
Max Gust Speed -    
Visibility 10 miles    
Events      
Averages and records for this station are not official NWS values.
T = Trace of Precipitation, MM = Missing Value Source: NWS Daily Summary

Daily Weather History Graph

Daily Weather History Graph

Search for Another Location

Airport:

Trip Planner

Search our weather history database for the weather conditions in past years. The results will help you decide how hot, cold, wet, or windy it might be!

Date:

Astronomy

Dec. 25, 2013 Rise Set
Actual Time 11:33 AM AKST 3:22 PM AKST
Civil Twilight 10:09 AM AKST 4:46 PM AKST
Nautical Twilight 8:58 AM AKST 5:57 PM AKST
Astronomical Twilight 7:57 AM AKST 6:59 PM AKST
Moon 1:46 AM AKST (12/25) 12:48 PM AKST (12/25)
Length of Visible Light 6h 36m
Length of Day
3h 48m
Waning Gibbous, 47% of the Moon is Illuminated
Dec 25
Waning Gibbous
Jan 1
New
Jan 7
First Quarter
Jan 15
Full
Jan 23
Last Quarter

Hourly Weather History & Observations

Time (AKST) Temp. Windchill Dew Point Humidity Pressure Visibility Wind Dir Wind Speed Gust Speed Precip Events Conditions
12:58 AM -36.0 °F - - N/A% 30.19 in 10.0 mi Calm Calm - N/A   Clear
1:58 AM -33.0 °F - - N/A% 30.19 in 10.0 mi Calm Calm - N/A   Clear
2:58 AM -33.0 °F -45.5 °F - N/A% 30.18 in 10.0 mi WNW 3.5 mph - N/A   Clear
3:58 AM -33.0 °F - - N/A% 30.18 in 10.0 mi Calm Calm - N/A   Clear
4:58 AM -32.1 °F -44.5 °F - N/A% 30.17 in 10.0 mi West 3.5 mph - N/A   Clear
5:58 AM -32.1 °F -47.3 °F - N/A% 30.17 in 10.0 mi West 4.6 mph - N/A   Clear
6:58 AM -31.0 °F -43.3 °F - N/A% 30.16 in 10.0 mi NW 3.5 mph - N/A   Clear
7:58 AM -31.0 °F -48.4 °F - N/A% 30.16 in 10.0 mi West 5.8 mph - N/A   Clear
8:58 AM -31.0 °F -46.1 °F - N/A% 30.17 in 10.0 mi West 4.6 mph - N/A   Clear
9:58 AM -29.9 °F - - N/A% 30.17 in 10.0 mi Calm Calm - N/A   Clear
10:58 AM -31.0 °F -46.1 °F - N/A% 30.18 in 10.0 mi West 4.6 mph - N/A   Clear
11:58 AM -29.9 °F -42.0 °F - N/A% 30.19 in 10.0 mi NW 3.5 mph - N/A   Clear
12:58 PM -27.9 °F - -35.0 °F 69% 30.19 in 10.0 mi Calm Calm - N/A   Clear
1:58 PM -29.0 °F -41.0 °F -35.0 °F 73% 30.19 in 10.0 mi West 3.5 mph - N/A   Clear
2:58 PM -29.9 °F -42.0 °F - N/A% 30.19 in 10.0 mi West 3.5 mph - N/A   Clear
3:58 PM -29.9 °F -42.0 °F - N/A% 30.18 in 10.0 mi West 3.5 mph - N/A   Clear
4:58 PM -29.9 °F -47.1 °F - N/A% 30.18 in 10.0 mi West 5.8 mph - N/A   Clear
5:58 PM -29.0 °F -46.0 °F -35.0 °F 73% 30.18 in 10.0 mi WNW 5.8 mph - N/A   Clear
6:58 PM -31.0 °F -46.1 °F - N/A% 30.18 in 10.0 mi West 4.6 mph - N/A   Clear
7:58 PM -34.1 °F - - N/A% 30.19 in 10.0 mi Calm Calm - N/A   Clear
8:58 PM -35.0 °F - - N/A% 30.19 in 10.0 mi Calm Calm - N/A   Clear
9:58 PM -36.9 °F - - N/A% 30.19 in 10.0 mi Calm Calm - N/A   Clear
10:58 PM -38.9 °F - - N/A% 30.19 in 4.0 mi Calm Calm - N/A   Haze
11:58 PM -38.9 °F - - N/A% 30.19 in 3.0 mi Calm Calm - N/A   Clear